Change the Weather History Date:

Sunday, January 12, 2014

  Actual Average (KN60) Record (KN60)
Temperature  
Mean Temperature 31 °F -  
Max Temperature 39 °F 15 °F 4 °F (2015)
Min Temperature 23 °F 0 °F -21 °F (2015)
Degree Days  
Heating Degree Days 34    
Moisture  
Dew Point 26 °F    
Average Humidity 74    
Maximum Humidity 87    
Minimum Humidity 61    
Precipitation  
Precipitation 0.00 in - - ()
Sea Level Pressure  
Sea Level Pressure 29.40 in    
Wind  
Wind Speed 12 mph (WSW)    
Max Wind Speed 26 mph    
Max Gust Speed 33 mph    
Visibility 10 miles    
Events      
Averages and records for this station are not official NWS values.
T = Trace of Precipitation, MM = Missing Value Source: NWS Daily Summary

Daily Weather History Graph

Daily Weather History Graph

Search for Another Location

Airport or City:

Trip Planner

Search our weather history database for the weather conditions in past years. The results will help you decide how hot, cold, wet, or windy it might be!

Date:

Astronomy

Jan. 12, 2014 Rise Set
Actual Time 8:30 AM CST 5:19 PM CST
Civil Twilight 7:55 AM CST 5:54 PM CST
Nautical Twilight 7:17 AM CST 6:32 PM CST
Astronomical Twilight 6:40 AM CST 7:09 PM CST
Moon 2:50 PM CST (1/12) 5:29 AM CST (1/12)
Length of Visible Light 9h 58m
Length of Day
8h 49m
Waxing Gibbous, 90% of the Moon is Illuminated
Jan 12
Waxing Gibbous
Jan 15
Full
Jan 23
Last Quarter
Jan 30
New
Feb 6
First Quarter

Hourly Weather History & Observations

Time (CST) Temp. Windchill Dew Point Humidity Pressure Visibility Wind Dir Wind Speed Gust Speed Precip Events Conditions
12:15 AM 37.4 °F 29.8 °F 32.0 °F 81% 29.24 in 10.0 mi SSW 11.5 mph - N/A   Scattered Clouds
12:35 AM 39.2 °F 32.5 °F 32.0 °F 75% 29.23 in 10.0 mi SW 10.4 mph - N/A   Scattered Clouds
12:55 AM 35.6 °F 29.9 °F 32.0 °F 87% 29.25 in 10.0 mi WSW 6.9 mph - N/A   Clear
1:15 AM 35.6 °F 29.2 °F 32.0 °F 87% 29.23 in 10.0 mi West 8.1 mph - N/A   Clear
1:35 AM 35.6 °F 28.6 °F 32.0 °F 87% 29.22 in 10.0 mi WSW 9.2 mph - N/A   Partly Cloudy
1:55 AM 37.4 °F 29.8 °F 32.0 °F 81% 29.22 in 10.0 mi SW 11.5 mph - N/A   Clear
2:15 AM 37.4 °F 29.3 °F 32.0 °F 81% 29.23 in 10.0 mi SW 12.7 mph - N/A   Clear
2:35 AM 37.4 °F 30.3 °F 32.0 °F 81% 29.24 in 10.0 mi WSW 10.4 mph - N/A   Clear
2:55 AM 37.4 °F 29.3 °F 30.2 °F 75% 29.24 in 10.0 mi West 12.7 mph - N/A   Clear
3:15 AM 37.4 °F 29.3 °F 30.2 °F 75% 29.24 in 10.0 mi WSW 12.7 mph - N/A   Partly Cloudy
3:35 AM 37.4 °F 29.3 °F 30.2 °F 75% 29.25 in 10.0 mi SW 12.7 mph - N/A   Clear
3:55 AM 37.4 °F 29.3 °F 30.2 °F 75% 29.26 in 10.0 mi SW 12.7 mph - N/A   Clear
4:15 AM 37.4 °F 27.5 °F 30.2 °F 75% 29.27 in 10.0 mi SW 18.4 mph - N/A   Clear
4:35 AM 37.4 °F 27.8 °F 30.2 °F 75% 29.28 in 10.0 mi WSW 17.3 mph 21.9 mph N/A   Clear
4:55 AM 37.4 °F 28.5 °F 30.2 °F 75% 29.28 in 10.0 mi WSW 15.0 mph - N/A   Partly Cloudy
5:15 AM 37.4 °F 29.8 °F 28.4 °F 70% 29.28 in 10.0 mi WSW 11.5 mph - N/A   Clear
5:35 AM 35.6 °F 27.5 °F 28.4 °F 75% 29.27 in 10.0 mi WSW 11.5 mph - N/A   Clear
5:55 AM 35.6 °F 28.0 °F 28.4 °F 75% 29.28 in 10.0 mi WSW 10.4 mph - N/A   Partly Cloudy
6:15 AM 35.6 °F 26.6 °F 28.4 °F 75% 29.28 in 10.0 mi WSW 13.8 mph - N/A   Clear
6:35 AM 35.6 °F 27.1 °F 26.6 °F 70% 29.27 in 10.0 mi WSW 12.7 mph - N/A   Clear
6:55 AM 33.8 °F 24.8 °F 26.6 °F 75% 29.28 in 10.0 mi WSW 12.7 mph - N/A   Clear
7:15 AM 32.0 °F 23.6 °F 26.6 °F 80% 29.28 in 10.0 mi WSW 10.4 mph - N/A   Clear
7:35 AM 32.0 °F 23.6 °F 24.8 °F 75% 29.28 in 10.0 mi WSW 10.4 mph - N/A   Clear
7:55 AM 32.0 °F 23.6 °F 24.8 °F 75% 29.28 in 10.0 mi WSW 10.4 mph - N/A   Clear
8:15 AM 30.2 °F 21.3 °F 24.8 °F 80% 29.28 in 10.0 mi WSW 10.4 mph - N/A   Clear
8:35 AM 30.2 °F 20.8 °F 24.8 °F 80% 29.29 in 10.0 mi WSW 11.5 mph - N/A   Clear
8:55 AM 32.0 °F 21.6 °F 24.8 °F 75% 29.29 in 10.0 mi WSW 15.0 mph 20.7 mph N/A   Clear
9:15 AM 32.0 °F 21.6 °F 24.8 °F 75% 29.30 in 10.0 mi WSW 15.0 mph - N/A   Clear
9:35 AM 32.0 °F 21.6 °F 23.0 °F 69% 29.31 in 10.0 mi WSW 15.0 mph - N/A   Clear
9:55 AM 32.0 °F 22.1 °F 24.8 °F 75% 29.32 in 10.0 mi WSW 13.8 mph - N/A   Clear
10:15 AM 32.0 °F 21.6 °F 24.8 °F 75% 29.32 in 10.0 mi SW 15.0 mph - N/A   Clear
10:35 AM 33.8 °F 24.8 °F 24.8 °F 70% 29.33 in 10.0 mi SW 12.7 mph - N/A   Clear
10:55 AM 35.6 °F 26.6 °F 24.8 °F 65% 29.33 in 10.0 mi SW 13.8 mph - N/A   Clear
11:15 AM 35.6 °F 26.6 °F 24.8 °F 65% 29.34 in 10.0 mi SW 13.8 mph - N/A   Clear
11:35 AM 35.6 °F 27.1 °F 24.8 °F 65% 29.34 in 10.0 mi WSW 12.7 mph - N/A   Clear
11:55 AM 37.4 °F 28.9 °F 26.6 °F 65% 29.33 in 10.0 mi WSW 13.8 mph - N/A   Clear
12:15 PM 37.4 °F 29.3 °F 26.6 °F 65% 29.33 in 10.0 mi WSW 12.7 mph - N/A   Clear
12:35 PM 37.4 °F 29.8 °F 26.6 °F 65% 29.34 in 10.0 mi WSW 11.5 mph - N/A   Clear
12:55 PM 37.4 °F 30.3 °F 26.6 °F 65% 29.33 in 10.0 mi SW 10.4 mph - N/A   Clear
1:15 PM 39.2 °F 32.5 °F 26.6 °F 61% 29.33 in 10.0 mi SW 10.4 mph - N/A   Clear
1:35 PM 39.2 °F 33.0 °F 26.6 °F 61% 29.33 in 10.0 mi SW 9.2 mph - N/A   Clear
1:55 PM 39.2 °F 32.5 °F 26.6 °F 61% 29.34 in 10.0 mi West 10.4 mph 17.3 mph N/A   Clear
2:15 PM 39.2 °F 32.0 °F 28.4 °F 65% 29.34 in 10.0 mi West 11.5 mph 16.1 mph N/A   Clear
2:35 PM 39.2 °F 31.2 °F 28.4 °F 65% 29.34 in 10.0 mi West 13.8 mph - N/A   Clear
2:55 PM 39.2 °F 30.8 °F 28.4 °F 65% 29.36 in 10.0 mi West 15.0 mph - N/A   Clear
3:15 PM 39.2 °F 32.0 °F 28.4 °F 65% 29.37 in 10.0 mi West 11.5 mph - N/A   Clear
3:35 PM 37.4 °F 30.8 °F 28.4 °F 70% 29.39 in 10.0 mi West 9.2 mph - N/A   Partly Cloudy
3:55 PM 37.4 °F 31.4 °F 28.4 °F 70% 29.40 in 10.0 mi West 8.1 mph - N/A   Mostly Cloudy
4:15 PM 37.4 °F 31.4 °F 28.4 °F 70% 29.42 in 10.0 mi West 8.1 mph - N/A   Overcast
4:35 PM 37.4 °F 32.1 °F 28.4 °F 70% 29.44 in 10.0 mi NW 6.9 mph - N/A   Overcast
4:55 PM 37.4 °F 28.5 °F 28.4 °F 70% 29.46 in 10.0 mi NW 15.0 mph - N/A   Overcast
5:15 PM 35.6 °F 24.5 °F 28.4 °F 75% 29.48 in 10.0 mi NW 20.7 mph - N/A   Overcast
5:35 PM 35.6 °F 23.2 °F 28.4 °F 75% 29.52 in 10.0 mi NNW 26.5 mph 33.4 mph N/A   Overcast
5:55 PM 32.0 °F 18.9 °F 26.6 °F 80% 29.55 in 10.0 mi NNW 24.2 mph 32.2 mph N/A   Overcast
6:15 PM 30.2 °F 16.5 °F 24.8 °F 80% 29.58 in 10.0 mi NNW 24.2 mph 33.4 mph N/A   Overcast
6:35 PM 30.2 °F 17.4 °F 24.8 °F 80% 29.60 in 10.0 mi NNW 20.7 mph 27.6 mph N/A   Overcast
6:55 PM 30.2 °F 18.1 °F 24.8 °F 80% 29.61 in 10.0 mi NW 18.4 mph 26.5 mph N/A   Overcast
7:15 PM 28.4 °F 15.4 °F 24.8 °F 86% 29.61 in 10.0 mi NW 19.6 mph 23.0 mph N/A   Overcast
7:35 PM 28.4 °F 14.4 °F 24.8 °F 86% 29.63 in 10.0 mi NW 23.0 mph - N/A   Overcast
7:55 PM 30.2 °F 18.9 °F 23.0 °F 75% 29.64 in 10.0 mi WNW 16.1 mph 27.6 mph N/A   Overcast
8:15 PM 28.4 °F 18.0 °F 23.0 °F 80% 29.65 in 10.0 mi WNW 12.7 mph - N/A   Mostly Cloudy
8:35 PM 28.4 °F 19.7 °F 21.2 °F 74% 29.65 in 10.0 mi West 9.2 mph - N/A   Mostly Cloudy
8:55 PM 28.4 °F 17.5 °F 21.2 °F 74% 29.65 in 10.0 mi WNW 13.8 mph 19.6 mph N/A   Partly Cloudy
9:15 PM 28.4 °F 17.5 °F 21.2 °F 74% 29.65 in 10.0 mi WNW 13.8 mph - N/A   Clear
9:35 PM 26.6 °F 16.8 °F 19.4 °F 74% 29.65 in 10.0 mi WNW 10.4 mph - N/A   Clear
9:55 PM 26.6 °F 17.5 °F 19.4 °F 74% 29.65 in 10.0 mi West 9.2 mph - N/A   Mostly Cloudy
10:15 PM 24.8 °F 16.1 °F 19.4 °F 80% 29.67 in 10.0 mi SW 8.1 mph - N/A   Scattered Clouds
10:35 PM 23.0 °F 14.7 °F 17.6 °F 80% 29.67 in 10.0 mi SW 6.9 mph - N/A   Clear
10:55 PM 23.0 °F 13.9 °F 17.6 °F 80% 29.67 in 10.0 mi WSW 8.1 mph - N/A   Clear
11:15 PM 23.0 °F 13.1 °F 17.6 °F 80% 29.67 in 10.0 mi WSW 9.2 mph - N/A   Partly Cloudy
11:35 PM 23.0 °F 13.1 °F 17.6 °F 80% 29.67 in 10.0 mi WSW 9.2 mph - N/A   Clear
11:55 PM 23.0 °F 13.9 °F 17.6 °F 80% 29.67 in 10.0 mi WSW 8.1 mph - N/A   Clear